STARLINK-11266 [DTC]

Last updated on Sat Sep 28 2024 00:02:03 GMT+0000 (Coordinated Universal Time)

1 60732U 24152N 24271.58334491 .00006697 00000+0 60110-4 0 9994 2 60732 53.1583 199.2535 0001055 100.0648 303.1387 15.69699981 5956
UTC large
Height (km)
Speed (km/s)
/
Latitude / Longitude
Inclination (degrees)
Orbital Period (minutes)
Azimuth
Elevation
Range (km)
Doppler Factor

Next 0 passes for location: London (51.5072 / 0.1276)

Sorry there are no passes over London.